TimeEET,TemperatureF,Dew PointF,Humidity,Sea Level PressureIn,VisibilityMPH,Wind Direction,Wind SpeedMPH,Gust SpeedMPH,PrecipitationIn,Events,Conditions,WindDirDegrees,DateUTC
12:50 AM,60.8,53.6,77,30.04,-9999.0,Calm,Calm,-,N/A,,Clear,0,2012-11-03 22:50:00
1:50 AM,60.8,53.6,77,30.04,-9999.0,Calm,Calm,-,N/A,,Clear,0,2012-11-03 23:50:00
2:50 AM,59.0,53.6,82,30.04,-9999.0,Calm,Calm,-,N/A,,Clear,0,2012-11-04 00:50:00
3:50 AM,59.0,53.6,82,30.04,-9999.0,North,5.8,-,N/A,,Clear,350,2012-11-04 01:50:00
4:50 AM,57.2,53.6,88,30.04,-9999.0,Calm,Calm,-,N/A,,Clear,0,2012-11-04 02:50:00
5:20 AM,57.2,53.6,88,30.04,-9999.0,Calm,Calm,-,N/A,,Clear,0,2012-11-04 03:20:00
5:50 AM,57.2,53.6,88,30.04,-9999.0,Calm,Calm,-,N/A,,Clear,0,2012-11-04 03:50:00
6:20 AM,57.2,53.6,88,30.04,-9999.0,Calm,Calm,-,N/A,,Clear,0,2012-11-04 04:20:00
6:50 AM,57.2,53.6,88,30.04,-9999.0,NNW,4.6,-,N/A,,Clear,340,2012-11-04 04:50:00
7:20 AM,57.2,53.6,88,30.04,-9999.0,NNW,5.8,-,N/A,,Clear,340,2012-11-04 05:20:00
7:50 AM,60.8,55.4,82,30.04,-9999.0,North,5.8,-,N/A,,Clear,350,2012-11-04 05:50:00
8:20 AM,64.4,55.4,73,30.04,-9999.0,Variable,3.5,-,N/A,,Clear,0,2012-11-04 06:20:00
8:50 AM,68.0,55.4,64,30.04,6.2,Calm,Calm,-,N/A,,Mostly Cloudy,0,2012-11-04 06:50:00
9:20 AM,68.0,57.2,68,30.04,6.2,Calm,Calm,-,N/A,,Mostly Cloudy,0,2012-11-04 07:20:00
9:50 AM,68.0,57.2,68,30.04,6.2,Calm,Calm,-,N/A,,Mostly Cloudy,0,2012-11-04 07:50:00
10:20 AM,71.6,57.2,60,30.04,6.2,Calm,Calm,-,N/A,,Mostly Cloudy,0,2012-11-04 08:20:00
10:50 AM,71.6,59.0,64,30.04,6.2,Variable,3.5,-,N/A,,Mostly Cloudy,0,2012-11-04 08:50:00
11:20 AM,71.6,57.2,60,30.04,6.2,South,5.8,-,N/A,,Mostly Cloudy,190,2012-11-04 09:20:00
11:50 AM,71.6,57.2,60,30.04,6.2,Variable,3.5,-,N/A,,Mostly Cloudy,0,2012-11-04 09:50:00
12:20 PM,73.4,55.4,53,30.04,6.2,South,4.6,-,N/A,,Partly Cloudy,190,2012-11-04 10:20:00
12:50 PM,73.4,57.2,57,30.04,6.2,South,6.9,-,N/A,,Mostly Cloudy,190,2012-11-04 10:50:00
1:20 PM,71.6,55.4,57,30.04,6.2,South,6.9,-,N/A,,Partly Cloudy,180,2012-11-04 11:20:00
1:50 PM,73.4,53.6,50,30.01,6.2,SSE,6.9,-,N/A,,Mostly Cloudy,160,2012-11-04 11:50:00
2:20 PM,73.4,51.8,47,30.01,6.2,South,8.1,-,N/A,,Partly Cloudy,180,2012-11-04 12:20:00
2:50 PM,75.2,53.6,47,30.01,6.2,South,4.6,-,N/A,,Mostly Cloudy,190,2012-11-04 12:50:00
3:20 PM,73.4,55.4,53,30.01,6.2,South,5.8,-,N/A,,Mostly Cloudy,190,2012-11-04 13:20:00
3:50 PM,71.6,57.2,60,30.01,6.2,South,4.6,-,N/A,,Partly Cloudy,180,2012-11-04 13:50:00
4:20 PM,71.6,57.2,60,30.01,6.2,South,5.8,-,N/A,,Mostly Cloudy,190,2012-11-04 14:20:00
4:50 PM,69.8,59.0,68,30.01,6.2,SSW,5.8,-,N/A,,Mostly Cloudy,200,2012-11-04 14:50:00
5:50 PM,69.8,59.0,68,30.01,6.2,South,4.6,-,N/A,,Mostly Cloudy,170,2012-11-04 15:50:00
6:20 PM,68.0,51.8,56,30.01,6.2,Calm,Calm,-,N/A,,Mostly Cloudy,0,2012-11-04 16:20:00
6:50 PM,66.2,53.6,64,30.01,6.2,Calm,Calm,-,N/A,,Mostly Cloudy,0,2012-11-04 16:50:00
7:20 PM,64.4,53.6,68,30.01,6.2,Variable,3.5,-,N/A,,Mostly Cloudy,0,2012-11-04 17:20:00
7:50 PM,62.6,53.6,72,30.01,6.2,Variable,3.5,-,N/A,,Scattered Clouds,0,2012-11-04 17:50:00
8:20 PM,62.6,51.8,68,30.01,6.2,North,5.8,-,N/A,,Scattered Clouds,350,2012-11-04 18:20:00
8:50 PM,62.6,51.8,68,30.01,6.2,NNW,5.8,-,N/A,,Partly Cloudy,340,2012-11-04 18:50:00
9:20 PM,62.6,51.8,68,30.01,6.2,North,6.9,-,N/A,,Partly Cloudy,350,2012-11-04 19:20:00
9:50 PM,62.6,53.6,72,30.01,6.2,Calm,Calm,-,N/A,,Scattered Clouds,0,2012-11-04 19:50:00
10:20 PM,62.6,53.6,72,30.01,6.2,Calm,Calm,-,N/A,,Scattered Clouds,0,2012-11-04 20:20:00
10:50 PM,60.8,53.6,77,30.01,6.2,Calm,Calm,-,N/A,,Scattered Clouds,0,2012-11-04 20:50:00
11:50 PM,60.8,53.6,77,30.01,6.2,Calm,Calm,-,N/A,,Partly Cloudy,0,2012-11-04 21:50:00